This demonstration page uses our WeatherBlox Daily Observations layout. Learn more.

Left ArrowRight Arrow

Hourly Observations for April 18, 2015

Temp ( °F °C ) Dew Point ( °F °C ) Humidity (%) Winds ( mph kmh ) Pressure ( in mb ) Visibility ( mi km ) Precip ( " mm )
12:51 am 00:51 Clear 56 13.3 16 -8.9 21 21 NNW 10 17 29.91 1013 10 16 N/A
1:51 am 01:51 Clear 52 11.1 15 -9.4 23 23 N 9 15 29.90 1013 10 16 N/A
2:51 am 02:51 Clear 48 8.9 15 -9.4 27 27 S 7 11 29.90 1013 10 16 N/A
3:51 am 03:51 Clear 44 6.7 15 -9.4 31 31 E 6 9 29.91 1013 10 16 N/A
4:51 am 04:51 Clear 45 7.2 14 -10 29 29 ESE 8 13 29.92 1013 10 16 N/A
5:51 am 05:51 Sunny 43 6.1 14 -10 31 31 ESE 3 6 29.94 1014 10 16 N/A
6:51 am 06:51 Sunny 47 8.3 16 -8.9 29 29 SE 3 6 29.95 1014 10 16 N/A
7:51 am 07:51 Cloudy 54 12.2 18 -7.8 24 24 SE 6 9 29.96 1014 10 16 N/A
8:51 am 08:51 Sunny 61 16.1 17 -8.3 18 18 VRB 3 6 29.95 1014 10 16 N/A
9:51 am 09:51 Sunny 68 20 18 -7.8 15 15 VRB 6 9 29.92 1013 10 16 N/A
10:51 am 10:51 Sunny 73 22.8 20 -6.7 13 13 WNW 12 19 29.89 1012 10 16 N/A
11:51 am 11:51 Sunny 76 24.4 20 -6.7 12 12 WNW 16 26 29.85 1011 10 16 N/A
12:51 pm 12:51 Sunny 78 25.6 20 -6.7 11 11 W 23 37 29.83 1010 10 16 N/A
1:51 pm 13:51 Sunny 80 26.7 21 -6.1 11 11 NNW 18 30 29.80 1009 10 16 N/A
1:58 pm 13:58 Sunny 80 26.7 21 -6.1 11 11 NW 22 35 29.71 1006 10 16 N/A
2:51 pm 14:51 Sunny 80 26.7 19 -7.2 10 10 NW 21 33 29.78 1009 10 16 N/A
3:51 pm 15:51 Sunny 80 26.7 19 -7.2 10 10 WNW 21 33 29.77 1008 10 16 N/A
4:51 pm 16:51 Sunny 79 26.1 17 -8.3 10 10 W 16 26 29.77 1008 10 16 N/A
5:51 pm 17:51 Sunny 76 24.4 18 -7.8 11 11 WNW 20 31 29.77 1008 10 16 N/A
6:51 pm 18:51 Clear 73 22.8 16 -8.9 11 11 W 13 20 29.78 1009 10 16 N/A
7:51 pm 19:51 Clear 69 20.6 16 -8.9 13 13 WNW 10 17 29.80 1009 10 16 N/A
8:51 pm 20:51 Clear 66 18.9 16 -8.9 14 14 NW 14 22 29.81 1010 10 16 N/A
9:51 pm 21:51 Clear 66 18.9 16 -8.9 14 14 NNW 14 22 29.81 1010 10 16 N/A
10:51 pm 22:51 Clear 64 17.8 17 -8.3 16 16 NW 12 19 29.82 1010 10 16 N/A
11:51 pm 23:51 Clear 61 16.1 17 -8.3 18 18 NNW 10 17 29.83 1010 10 16 N/A

Powered by AerisWeather